Torna al catalogo

CZ-6A DEB

AttivoPO
NORAD 61082·DEBRIS·🇨🇳 China

Lanciato Aug 6, 2024 da Taiyuan Satellite Launch Center

Loading…

Prossimi Passaggi (prossime 24 ore)

TLE

AggiornatoSource: Space-Track

Epoca: Sep 14, 2026, 07:19 UTC

1 61082U 24140MY  26257.30488191  .00000091  00000-0  50627-4 0  9998
2 61082  88.9659 265.2812 0145813 338.3749  21.1309 13.97578998104680

Traccia CZ-6A DEB in tempo reale con AllMySat

Download on the App Store